This demonstration page uses our WeatherBlox Daily Observations layout. Learn more.

Left ArrowRight Arrow

Hourly Observations for October 4, 2022

Temp ( °F °C ) Dew Point ( °F °C ) Humidity (%) Winds ( mph kmh ) Pressure ( in mb ) Visibility ( mi km ) Precip ( " mm )
12:15 am 00:15 Clear 42 5.7 38 3.2 84 84 NE 5 7 30.31 1026 10 16 0.00 0.00
12:35 am 00:35 Clear 44 6.4 38 3.1 79 79 Calm 30.30 1026 10 16 0.00 0.00
12:55 am 00:55 Clear 45 7.1 38 3.5 78 78 Calm 30.30 1026 10 16 0.00 0.00
1:15 am 01:15 Clear 43 6.3 38 3.2 81 81 Calm 30.31 1026 10 16 0.00 0.00
1:35 am 01:35 Clear 45 7 38 3.3 77 77 ENE 3 6 30.30 1026 10 16 0.00 0.00
1:55 am 01:55 Clear 42 5.6 37 2.9 83 83 E 3 6 30.31 1026 10 16 0.00 0.00
2:15 am 02:15 Clear 41 5.2 37 2.9 85 85 E 3 6 30.30 1026 10 16 0.00 0.00
2:35 am 02:35 Clear 42 5.8 38 3.1 83 83 Calm 30.30 1026 10 16 0.00 0.00
2:55 am 02:55 Clear 43 5.9 37 3 82 82 Calm 30.29 1026 10 16 0.00 0.00
3:15 am 03:15 Clear 42 5.3 37 2.9 84 84 Calm 30.29 1026 10 16 0.00 0.00
3:35 am 03:35 Clear 39 3.8 37 2.5 91 91 Calm 30.29 1026 10 16 0.00 0.00
3:55 am 03:55 Clear 36 2.1 35 1.5 96 96 Calm 30.30 1026 10 16 0.00 0.00
4:15 am 04:15 Clear 38 3.6 38 3.4 99 99 Calm 30.29 1026 10 16 0.00 0.00
4:35 am 04:35 Clear 34 1 33 0.5 96 96 Calm 30.30 1026 10 16 0.00 0.00
4:55 am 04:55 Clear 36 2.1 35 1.5 96 96 Calm 30.30 1026 10 16 0.00 0.00
5:15 am 05:15 Clear with Mist and Fog 33 0.4 32 0.1 98 98 Calm 30.31 1026 3 5 0.00 0.00
5:35 am 05:35 Clear 32 0.1 32 0 99 99 N 3 6 30.31 1026 10 16 0.00 0.00
5:55 am 05:55 Clear 34 1.3 34 1.1 99 99 Calm 30.30 1026 10 16 0.00 0.00
6:15 am 06:15 Clear 34 1 33 0.7 98 98 Calm 30.30 1026 10 16 0.00 0.00
6:35 am 06:35 Clear 34 1.2 34 1 99 99 Calm 30.30 1026 10 16 0.00 0.00
6:55 am 06:55 Clear 33 0.4 32 0.2 99 99 Calm 30.32 1027 7 11 0.00 0.00
7:15 am 07:15 Clear 34 1.1 34 1.1 100 100 Calm 30.31 1027 10 16 0.00 0.00
7:35 am 07:35 Clear 33 0.8 33 0.7 99 99 Calm 30.31 1027 7 11 0.00 0.00
7:55 am 07:55 Sunny 32 0 32 0 100 100 Calm 30.33 1027 7 11 0.00 0.00
8:15 am 08:15 Sunny 32 0 32 0 100 100 Calm 30.32 1027 10 16 0.00 0.00
8:35 am 08:35 Sunny 34 1.1 34 1 99 99 Calm 30.31 1027 10 16 0.00 0.00
8:55 am 08:55 Sunny 39 3.8 38 3.6 99 99 Calm 30.30 1026 10 16 0.00 0.00
9:15 am 09:15 Sunny 43 6.3 42 5.3 93 93 Calm 30.31 1026 10 16 0.00 0.00
9:35 am 09:35 Sunny 47 8.1 43 6.2 88 88 Calm 30.30 1026 10 16 0.00 0.00
9:55 am 09:55 Sunny 48 9 43 6.2 83 83 Calm 30.30 1026 10 16 0.00 0.00
10:15 am 10:15 Sunny 51 10.5 43 6.1 74 74 Calm 30.29 1026 10 16 0.00 0.00
10:35 am 10:35 Sunny 53 11.8 42 5.5 65 65 E 3 6 30.27 1025 10 16 0.00 0.00
10:55 am 10:55 Sunny 54 12.3 42 5.8 64 64 Calm 30.27 1025 10 16 0.00 0.00
11:15 am 11:15 Sunny 57 13.7 41 5 56 56 Calm 30.27 1025 10 16 0.00 0.00
11:35 am 11:35 Sunny 58 14.7 37 2.9 45 45 Calm 30.26 1025 10 16 0.00 0.00
11:55 am 11:55 Sunny 60 15.5 34 1.3 38 38 E 5 7 30.25 1024 10 16 0.00 0.00
12:15 pm 12:15 Sunny 62 16.6 34 1.1 35 35 E 3 6 30.25 1024 10 16 0.00 0.00
12:35 pm 12:35 Sunny 63 17.4 31 -0.6 29 29 E 6 9 30.24 1024 10 16 0.00 0.00
12:55 pm 12:55 Sunny 64 17.8 31 -0.5 29 29 ESE 5 7 30.23 1024 10 16 0.00 0.00
1:15 pm 13:15 Sunny 65 18.4 32 -0.2 28 28 E 3 6 30.22 1023 10 16 0.00 0.00
1:35 pm 13:35 Sunny 66 18.8 32 0.2 29 29 E 5 7 30.22 1023 10 16 0.00 0.00
1:55 pm 13:55 Sunny 67 19.6 33 0.5 28 28 ESE 7 11 30.21 1023 10 16 0.00 0.00
2:15 pm 14:15 Sunny 66 19 34 1 30 30 N 3 6 30.21 1023 10 16 0.00 0.00
2:35 pm 14:35 Sunny 68 19.8 32 0.1 27 27 ESE 3 6 30.20 1023 10 16 0.00 0.00
2:55 pm 14:55 Sunny 69 20.5 33 0.6 26 26 Calm 30.18 1022 7 11 0.00 0.00
3:15 pm 15:15 Sunny 69 20.5 32 0.2 26 26 NNW 5 7 30.18 1022 10 16 0.00 0.00
3:35 pm 15:35 Sunny 69 20.7 30 -0.9 23 23 NW 3 6 30.16 1021 10 16 0.00 0.00
3:55 pm 15:55 Sunny 70 21.1 30 -1.3 22 22 W 3 6 30.16 1021 10 16 0.00 0.00
4:15 pm 16:15 Sunny 70 21.3 30 -1.2 22 22 ENE 3 6 30.15 1021 10 16 0.00 0.00
4:35 pm 16:35 Sunny 71 21.7 32 -0.2 23 23 NNW 5 7 30.15 1021 10 16 0.00 0.00
4:55 pm 16:55 Sunny 71 21.7 30 -1.1 22 22 N 5 7 30.14 1021 10 16 0.00 0.00
5:15 pm 17:15 Sunny 70 21.3 28 -2 21 21 N 6 9 30.14 1021 10 16 0.00 0.00
5:35 pm 17:35 Sunny 71 21.4 28 -2.1 21 21 NNE 3 6 30.14 1021 10 16 0.00 0.00
5:55 pm 17:55 Sunny 70 21.3 27 -2.9 19 19 N 5 7 30.13 1020 10 16 0.00 0.00
6:15 pm 18:15 Sunny 70 21 28 -2.4 21 21 NNE 5 7 30.13 1020 10 16 0.00 0.00
6:35 pm 18:35 Sunny 69 20.4 29 -1.5 23 23 Calm 30.13 1020 10 16 0.00 0.00
6:55 pm 18:55 Sunny 67 19.4 33 0.4 28 28 N 3 6 30.15 1021 10 16 0.00 0.00
7:15 pm 19:15 Sunny 60 15.7 38 3.2 43 43 N 3 6 30.15 1021 10 16 0.00 0.00
7:35 pm 19:35 Clear 56 13.4 39 3.7 52 52 Calm 30.16 1021 10 16 0.00 0.00
7:55 pm 19:55 Clear 55 13 39 3.9 54 54 Calm 30.17 1022 10 16 0.00 0.00
8:15 pm 20:15 Clear 51 10.7 40 4.6 66 66 Calm 30.19 1022 10 16 0.00 0.00
8:35 pm 20:35 Clear 51 10.4 40 4.3 66 66 Calm 30.18 1022 10 16 0.00 0.00
8:55 pm 20:55 Clear 51 10.7 39 4 63 63 Calm 30.18 1022 10 16 0.00 0.00
9:15 pm 21:15 Clear 49 9.7 40 4.3 69 69 Calm 30.18 1022 10 16 0.00 0.00
9:35 pm 21:35 Clear 47 8.1 40 4.3 77 77 Calm 30.20 1023 10 16 0.00 0.00
9:55 pm 21:55 Clear 46 8 40 4.3 77 77 Calm 30.19 1022 10 16 0.00 0.00
10:15 pm 22:15 Clear 47 8.1 41 5 81 81 Calm 30.19 1022 10 16 0.00 0.00
10:35 pm 22:35 Clear 45 7.3 40 4.5 82 82 Calm 30.19 1022 10 16 0.00 0.00
10:55 pm 22:55 Clear 45 7 40 4.2 82 82 Calm 30.19 1022 10 16 0.00 0.00
11:15 pm 23:15 Clear 44 6.8 40 4.6 86 86 Calm 30.19 1022 10 16 0.00 0.00
11:35 pm 23:35 Clear 44 6.4 40 4.3 86 86 Calm 30.20 1023 10 16 0.00 0.00
11:55 pm 23:55 Clear 42 5.6 39 4 89 89 Calm 30.20 1023 10 16 0.00 0.00

Powered by AerisWeather